Tracking 18630 objects as of 25-May-2017
HD Live streaming from Space Station
objects crossing your sky now

OPS 3367 B

Track OPS 3367 B now!
10-day predictions
OPS 3367 B is classified as:


NORAD ID: 735
Int'l Code: 1964-002C
Perigee: 793.9 km
Apogee: 818.9 km
Inclination: 99.0 °
Period: 100.9 minutes
Semi major axis: 7177 km
RCS: 0.3381 m2 (medium)
Launch date: January 19, 1964
Source: United States (US)
Launch site: AIR FORCE WESTERN TEST RANGE (AFWTR)
Your satellite tracking list
Your tracking list is empty





NASA's NSSDC Master Catalog

Two Line Element Set (TLE):
1   735U 64002C   17144.35999052 -.00000015 +00000-0 +12846-4 0  9998
2   735 098.9934 258.8532 0017371 145.8810 214.3490 14.27755232774221
Source of the keplerian elements: AFSPC